Anaktuvuk Pass, AK

11:43 AM AKST on February 12, 2016 (GMT -0900)
Anaktuvuk Pass

Weather History for PAKP - November, 2013

Change the Weather History Date:

Saturday, November 2, 2013

  Actual Average Record
Temperature  
Mean Temperature 4 °F -  
Max Temperature 8 °F 6 °F 30 °F (2003)
Min Temperature 0 °F 0 °F -23 °F (1999)
Degree Days  
Heating Degree Days 60    
Moisture  
Dew Point -1 °F    
Average Humidity 72    
Maximum Humidity 79    
Minimum Humidity 66    
Precipitation  
Precipitation 0.00 in - - ()
Sea Level Pressure  
Sea Level Pressure 29.78 in    
Wind  
Wind Speed 13 mph (SSW)    
Max Wind Speed 18 mph    
Max Gust Speed 24 mph    
Visibility 7 miles    
Events      
Averages and records for this station are not official NWS values.
T = Trace of Precipitation, MM = Missing Value Source: NWS Daily Summary

Daily Weather History Graph

Daily Weather History Graph

Search for Another Location

Airport or City:

Trip Planner

Search our weather history database for the weather conditions in past years. The results will help you decide how hot, cold, wet, or windy it might be!

Date:

Astronomy

Nov. 02, 2013 Rise Set
Actual Time 10:25 AM AKDT 5:14 PM AKDT
Civil Twilight 9:18 AM AKDT 6:21 PM AKDT
Nautical Twilight 8:10 AM AKDT 7:29 PM AKDT
Astronomical Twilight 7:05 AM AKDT 8:33 PM AKDT
Moon 9:18 AM AKDT (11/2) 4:59 PM AKDT (11/2)
Length of Visible Light 9h 02m
Length of Day
6h 48m
Waning Crescent, 1% of the Moon is Illuminated
Nov 2
Waning Crescent
Nov 3
New
Nov 9
First Quarter
Nov 17
Full
Nov 25
Last Quarter

Hourly Weather History & Observations

Time (AKDT) Temp. Windchill Dew Point Humidity Pressure Visibility Wind Dir Wind Speed Gust Speed Precip Events Conditions
12:16 AM 8.6 °F -5.5 °F 1.4 °F 73% 29.88 in 10.0 mi South 10.4 mph - N/A   Overcast
12:36 AM 8.6 °F -4.7 °F 1.4 °F 73% 29.88 in 10.0 mi South 9.2 mph - N/A   Overcast
12:56 AM 8.6 °F -4.7 °F 1.4 °F 73% 29.88 in 10.0 mi South 9.2 mph - N/A   Overcast
1:16 AM 8.6 °F -5.5 °F 1.4 °F 73% 29.88 in 10.0 mi South 10.4 mph - N/A   Overcast
1:36 AM 6.8 °F -7.8 °F -0.4 °F 72% 29.88 in 10.0 mi South 10.4 mph - N/A   Overcast
1:56 AM 6.8 °F -7.8 °F -0.4 °F 72% 29.88 in 10.0 mi South 10.4 mph - N/A   Overcast
2:16 AM 8.6 °F -5.5 °F 1.4 °F 73% 29.88 in 10.0 mi SW 10.4 mph - N/A   Overcast
2:36 AM 6.8 °F -6.9 °F -0.4 °F 72% 29.88 in 10.0 mi South 9.2 mph - N/A   Overcast
2:56 AM 6.8 °F -5.9 °F -0.4 °F 72% 29.87 in 10.0 mi South 8.1 mph - N/A   Overcast
3:16 AM 6.8 °F -8.6 °F -0.4 °F 72% 29.87 in 10.0 mi South 11.5 mph - N/A   Mostly Cloudy
3:36 AM 6.8 °F -7.8 °F 1.4 °F 79% 29.86 in 10.0 mi South 10.4 mph - N/A   Mostly Cloudy
3:56 AM 6.8 °F -9.3 °F -0.4 °F 72% 29.85 in 9.0 mi SSW 12.7 mph - N/A   Mostly Cloudy
4:16 AM 6.8 °F -6.9 °F -0.4 °F 72% 29.85 in 8.0 mi South 9.2 mph - N/A   Partly Cloudy
4:36 AM 6.8 °F -8.6 °F -0.4 °F 72% 29.84 in 8.0 mi SSW 11.5 mph 18.4 mph N/A   Partly Cloudy
4:56 AM 6.8 °F -8.6 °F -0.4 °F 72% 29.83 in 9.0 mi SW 11.5 mph 16.1 mph N/A   Partly Cloudy
5:16 AM 6.8 °F -8.6 °F -0.4 °F 72% 29.83 in 9.0 mi South 11.5 mph - N/A   Scattered Clouds
5:36 AM 6.8 °F -6.9 °F -0.4 °F 72% 29.82 in 10.0 mi South 9.2 mph - N/A   Partly Cloudy
5:56 AM 6.8 °F -9.3 °F -0.4 °F 72% 29.82 in 4.0 mi SW 12.7 mph - N/A   Clear
6:16 AM 6.8 °F -9.3 °F -0.4 °F 72% 29.82 in 4.0 mi SW 12.7 mph 18.4 mph N/A   Clear
6:36 AM 6.8 °F -10.7 °F 1.4 °F 79% 29.81 in 1.8 mi SW 15.0 mph 21.9 mph N/A   Scattered Clouds
6:56 AM 8.6 °F -7.0 °F 1.4 °F 73% 29.80 in 2.0 mi SSW 12.7 mph 19.6 mph N/A   Clear
7:16 AM 8.6 °F -7.7 °F 1.4 °F 73% 29.80 in 3.0 mi SSW 13.8 mph 18.4 mph N/A   Clear
7:36 AM 8.6 °F -7.0 °F 1.4 °F 73% 29.80 in 7.0 mi SSW 12.7 mph 18.4 mph N/A   Clear
7:56 AM 8.6 °F -8.3 °F 1.4 °F 73% 29.80 in 2.0 mi SSW 15.0 mph 24.2 mph N/A   Clear
8:16 AM 8.6 °F -7.7 °F 1.4 °F 73% 29.80 in 5.0 mi SSW 13.8 mph 24.2 mph N/A   Clear
8:36 AM 8.6 °F -8.9 °F -0.4 °F 67% 29.80 in 7.0 mi SW 16.1 mph 20.7 mph N/A   Clear
8:56 AM 6.8 °F -10.7 °F -0.4 °F 72% 29.79 in 8.0 mi SW 15.0 mph 21.9 mph N/A   Clear
9:16 AM 6.8 °F -11.8 °F -0.4 °F 72% 29.79 in 9.0 mi SW 17.3 mph 21.9 mph N/A   Clear
9:36 AM 6.8 °F -11.3 °F -0.4 °F 72% 29.79 in 10.0 mi SW 16.1 mph 19.6 mph N/A   Clear
9:56 AM 6.8 °F -11.3 °F -0.4 °F 72% 29.78 in 10.0 mi SW 16.1 mph - N/A   Clear
10:16 AM 6.8 °F -10.7 °F -0.4 °F 72% 29.78 in 9.0 mi SSW 15.0 mph 21.9 mph N/A   Clear
10:36 AM 6.8 °F -11.3 °F -0.4 °F 72% 29.78 in 10.0 mi SW 16.1 mph 21.9 mph N/A   Clear
10:56 AM 6.8 °F -11.8 °F -0.4 °F 72% 29.78 in 8.0 mi SSW 17.3 mph 21.9 mph N/A   Clear
11:16 AM 6.8 °F -10.7 °F -0.4 °F 72% 29.78 in 9.0 mi SW 15.0 mph 19.6 mph N/A   Clear
11:36 AM 6.8 °F -10.0 °F -0.4 °F 72% 29.78 in 10.0 mi SW 13.8 mph 23.0 mph N/A   Clear
11:56 AM 6.8 °F -10.7 °F -0.4 °F 72% 29.78 in 9.0 mi SSW 15.0 mph 21.9 mph N/A   Clear
12:16 PM 6.8 °F -10.7 °F -0.4 °F 72% 29.78 in 8.0 mi SSW 15.0 mph 21.9 mph N/A   Clear
12:36 PM 6.8 °F -10.7 °F -0.4 °F 72% 29.78 in 9.0 mi SSW 15.0 mph 20.7 mph N/A   Clear
12:56 PM 6.8 °F -11.3 °F 1.4 °F 79% 29.77 in 9.0 mi SSW 16.1 mph - N/A   Clear
1:16 PM 6.8 °F -11.3 °F 1.4 °F 79% 29.77 in 4.0 mi SSW 16.1 mph 20.7 mph N/A   Clear
1:36 PM 6.8 °F -11.3 °F -0.4 °F 72% 29.77 in 9.0 mi South 16.1 mph - N/A   Clear
1:56 PM 6.8 °F -10.7 °F -0.4 °F 72% 29.76 in 5.0 mi South 15.0 mph - N/A   Clear
2:16 PM 6.8 °F -11.3 °F -0.4 °F 72% 29.75 in 7.0 mi SSW 16.1 mph 19.6 mph N/A   Clear
2:36 PM 6.8 °F -10.7 °F -0.4 °F 72% 29.75 in 7.0 mi SSW 15.0 mph 20.7 mph N/A   Clear
2:56 PM 6.8 °F -11.8 °F -0.4 °F 72% 29.75 in 7.0 mi South 17.3 mph 21.9 mph N/A   Clear
3:16 PM 6.8 °F -11.8 °F -0.4 °F 72% 29.75 in 4.0 mi SSW 17.3 mph - N/A   Clear
3:36 PM 6.8 °F -9.3 °F -0.4 °F 72% 29.75 in 5.0 mi South 12.7 mph - N/A   Clear
3:56 PM 6.8 °F -12.4 °F -0.4 °F 72% 29.75 in 8.0 mi South 18.4 mph - N/A   Partly Cloudy
4:16 PM 6.8 °F -11.3 °F -0.4 °F 72% 29.75 in 5.0 mi South 16.1 mph 24.2 mph N/A   Scattered Clouds
4:36 PM 6.8 °F -10.7 °F -0.4 °F 72% 29.74 in 4.0 mi SSW 15.0 mph 23.0 mph N/A   Clear
4:56 PM 6.8 °F -11.8 °F -0.4 °F 72% 29.75 in 5.0 mi South 17.3 mph - N/A   Scattered Clouds
5:16 PM 6.8 °F -11.3 °F -2.2 °F 67% 29.74 in 7.0 mi South 16.1 mph 23.0 mph N/A   Overcast
5:36 PM 5.0 °F -13.0 °F -2.2 °F 72% 29.74 in 4.0 mi SSW 15.0 mph 21.9 mph N/A   Overcast
5:56 PM 5.0 °F -13.0 °F -2.2 °F 72% 29.73 in 5.0 mi South 15.0 mph 18.4 mph N/A   Mostly Cloudy
6:16 PM 5.0 °F -14.2 °F -2.2 °F 72% 29.73 in 7.0 mi South 17.3 mph - N/A   Mostly Cloudy
6:36 PM 5.0 °F -13.0 °F -2.2 °F 72% 29.73 in 5.0 mi South 15.0 mph 19.6 mph N/A   Partly Cloudy
6:56 PM 3.2 °F -15.9 °F -2.2 °F 78% 29.72 in 10.0 mi SSW 16.1 mph - N/A   Clear
7:16 PM 3.2 °F -17.1 °F -2.2 °F 78% 29.73 in 9.0 mi South 18.4 mph - N/A   Clear
7:36 PM 3.2 °F -16.5 °F -2.2 °F 78% 29.72 in 7.0 mi South 17.3 mph - N/A   Clear
7:56 PM 3.2 °F -16.5 °F -4.0 °F 72% 29.72 in 8.0 mi South 17.3 mph - N/A   Clear
8:16 PM 3.2 °F -17.1 °F -5.8 °F 66% 29.71 in 9.0 mi South 18.4 mph - N/A   Clear
8:36 PM 3.2 °F -15.9 °F -5.8 °F 66% 29.71 in 6.0 mi South 16.1 mph 20.7 mph N/A   Clear
8:56 PM 1.4 °F -19.4 °F -5.8 °F 72% 29.71 in 5.0 mi South 18.4 mph - N/A   Scattered Clouds
9:16 PM 1.4 °F -17.6 °F -5.8 °F 72% 29.70 in 2.5 mi SSW 15.0 mph 21.9 mph N/A   Mostly Cloudy
9:36 PM 1.4 °F -19.4 °F -5.8 °F 72% 29.71 in 2.0 mi SSW 18.4 mph 23.0 mph N/A   Overcast
9:56 PM 1.4 °F -18.2 °F -5.8 °F 72% 29.71 in 1.0 mi South 16.1 mph - N/A   Overcast
10:16 PM 1.4 °F -15.3 °F -5.8 °F 72% 29.70 in 1.2 mi South 11.5 mph - N/A   Overcast
10:36 PM 1.4 °F -17.6 °F -5.8 °F 72% 29.70 in 1.5 mi South 15.0 mph - N/A   Overcast
10:56 PM 1.4 °F -17.6 °F -5.8 °F 72% 29.71 in 1.8 mi South 15.0 mph - N/A   Overcast
11:16 PM 1.4 °F -18.2 °F -7.6 °F 66% 29.70 in 2.0 mi South 16.1 mph - N/A   Overcast
11:36 PM 1.4 °F -16.9 °F -7.6 °F 66% 29.70 in 2.0 mi South 13.8 mph - N/A   Overcast
11:56 PM -0.4 °F -18.4 °F -7.6 °F 72% 29.70 in 2.5 mi SSE 12.7 mph - N/A   Overcast